| time (UTC) | temp F | wind direction | speed MPH | gust MPH | rain 1hr in | rain 24hr in | rain mn in | humidity % | barometer mb |
| 20260903131015 | 74 | 55 | 1.0 | 5.0 | 0.00 | 0.00 | 0.00 | 95 | 1010.3 |
| 20260903130514 | 74 | 68 | 0.0 | 3.0 | 0.00 | 0.00 | 0.00 | 95 | 1010.5 |
| 20260903130012 | 74 | 120 | 0.0 | 6.0 | 0.00 | 0.00 | 0.00 | 96 | 1010.5 |
| 20260903125510 | 73 | 58 | 1.0 | 6.0 | 0.00 | 0.00 | 0.00 | 95 | 1010.6 |
| 20260903125009 | 73 | 110 | 0.0 | 4.0 | 0.00 | 0.00 | 0.00 | 96 | 1010.6 |
| 20260903124508 | 73 | 288 | 1.0 | 6.0 | 0.00 | 0.00 | 0.00 | 96 | 1010.7 |
| 20260903124007 | 73 | 293 | 0.0 | 6.0 | 0.00 | 0.00 | 0.00 | 96 | 1010.7 |
| 20260903123506 | 73 | 58 | 2.0 | 7.0 | 0.00 | 0.00 | 0.00 | 96 | 1010.6 |
| 20260903123002 | 73 | 78 | 3.0 | 7.0 | 0.00 | 0.00 | 0.00 | 95 | 1010.7 |
| 20260903122502 | 73 | 34 | 3.0 | 7.0 | 0.00 | 0.00 | 0.00 | 95 | 1010.5 |
| 20260903122059 | 73 | 32 | 3.0 | 7.0 | 0.00 | 0.00 | 0.00 | 95 | 1010.7 |
| 20260903121558 | 73 | 25 | 1.0 | 4.0 | 0.00 | 0.00 | 0.00 | 95 | 1010.2 |
| 20260903121057 | 73 | 67 | 0.0 | 3.0 | 0.00 | 0.00 | 0.00 | 95 | 1010.1 |
| 20260903120600 | 73 | 316 | 0.0 | 3.0 | 0.00 | 0.00 | 0.00 | 96 | 1010.1 |
| 20260903120055 | 73 | 238 | 0.0 | 1.0 | 0.00 | 0.00 | 0.00 | 96 | 1009.9 |
| 20260903115552 | 73 | 238 | 0.0 | 0.0 | 0.00 | 0.00 | 0.00 | 95 | 1009.9 |
| 20260903115051 | 73 | 238 | 0.0 | 0.0 | 0.00 | 0.00 | 0.00 | 96 | 1009.8 |
| 20260903114551 | 72 | 238 | 0.0 | 0.0 | 0.00 | 0.00 | 0.00 | 96 | 1009.9 |
| 20260903114052 | 72 | 238 | 0.0 | 0.0 | 0.00 | 0.00 | 0.00 | 95 | 1009.8 |
| 20260903113547 | 72 | 238 | 0.0 | 0.0 | 0.00 | 0.00 | 0.00 | 95 | 1009.7 |
| 20260903113046 | 72 | 238 | 0.0 | 0.0 | 0.00 | 0.00 | 0.00 | 95 | 1009.7 |
| 20260903112546 | 72 | 238 | 0.0 | 0.0 | 0.00 | 0.00 | 0.00 | 95 | 1009.6 |
| 20260903112044 | 72 | 238 | 0.0 | 0.0 | 0.00 | 0.00 | 0.00 | 95 | 1009.6 |
| 20260903111543 | 72 | 238 | 0.0 | 0.0 | 0.00 | 0.00 | 0.00 | 95 | 1009.5 |
| 20260903111045 | 72 | 238 | 0.0 | 0.0 | 0.00 | 0.00 | 0.00 | 95 | 1009.3 |
| 20260903110542 | 72 | 238 | 0.0 | 0.0 | 0.00 | 0.00 | 0.00 | 95 | 1009.2 |
| 20260903110040 | 72 | 238 | 0.0 | 1.0 | 0.00 | 0.00 | 0.00 | 95 | 1009.0 |
| 20260903105543 | 72 | 238 | 0.0 | 2.0 | 0.00 | 0.00 | 0.00 | 95 | 1009.0 |
| 20260903105041 | 71 | 238 | 0.0 | 2.0 | 0.00 | 0.00 | 0.00 | 95 | 1008.9 |
| 20260903104544 | 71 | 245 | 0.0 | 1.0 | 0.00 | 0.00 | 0.00 | 95 | 1008.8 |
| 20260903104040 | 71 | 237 | 0.0 | 1.0 | 0.00 | 0.00 | 0.00 | 95 | 1008.8 |
| 20260903103543 | 71 | 237 | 0.0 | 1.0 | 0.00 | 0.00 | 0.00 | 95 | 1008.7 |
| 20260903103039 | 71 | 240 | 0.0 | 1.0 | 0.00 | 0.00 | 0.00 | 95 | 1008.7 |
| 20260903102539 | 71 | 243 | 0.0 | 1.0 | 0.00 | 0.00 | 0.00 | 95 | 1008.6 |
| 20260903102037 | 71 | 231 | 0.0 | 0.0 | 0.00 | 0.00 | 0.00 | 95 | 1008.7 |
| 20260903101539 | 71 | 222 | 0.0 | 1.0 | 0.00 | 0.00 | 0.00 | 95 | 1008.7 |
| 20260903101037 | 71 | 260 | 0.0 | 1.0 | 0.00 | 0.00 | 0.00 | 95 | 1008.7 |
| 20260903100537 | 71 | 260 | 0.0 | 1.0 | 0.00 | 0.00 | 0.00 | 95 | 1008.5 |
| 20260903100036 | 71 | 260 | 0.0 | 1.0 | 0.00 | 0.00 | 0.00 | 95 | 1008.7 |
| 20260903095535 | 71 | 260 | 0.0 | 0.0 | 0.00 | 0.00 | 0.00 | 95 | 1008.9 |
| 20260903095034 | 71 | 262 | 0.0 | 0.0 | 0.00 | 0.00 | 0.00 | 95 | 1008.9 |
| 20260903094539 | 71 | 262 | 0.0 | 0.0 | 0.00 | 0.00 | 0.00 | 95 | 1009.0 |
| 20260903094033 | 71 | 262 | 0.0 | 0.0 | 0.00 | 0.00 | 0.00 | 95 | 1009.1 |
| 20260903093531 | 71 | 262 | 0.0 | 1.0 | 0.00 | 0.00 | 0.00 | 95 | 1009.2 |
| 20260903093047 | 71 | 262 | 0.0 | 1.0 | 0.00 | 0.00 | 0.00 | 95 | 1009.2 |
| 20260903092533 | 71 | 260 | 0.0 | 1.0 | 0.00 | 0.00 | 0.00 | 95 | 1009.2 |
| 20260903092031 | 71 | 260 | 0.0 | 0.0 | 0.00 | 0.00 | 0.00 | 95 | 1009.0 |
| 20260903091529 | 71 | 260 | 0.0 | 0.0 | 0.00 | 0.00 | 0.00 | 95 | 1009.1 |
| 20260903091029 | 71 | 260 | 0.0 | 0.0 | 0.00 | 0.00 | 0.00 | 95 | 1009.1 |
| 20260903090530 | 71 | 260 | 0.0 | 1.0 | 0.00 | 0.00 | 0.00 | 95 | 1009.1 |
| 20260903090034 | 71 | 260 | 0.0 | 1.0 | 0.00 | 0.00 | 0.00 | 95 | 1009.1 |
| 20260903085529 | 71 | 260 | 0.0 | 0.0 | 0.00 | 0.00 | 0.00 | 95 | 1009.0 |
| 20260903085028 | 71 | 260 | 0.0 | 0.0 | 0.00 | 0.00 | 0.00 | 95 | 1009.0 |
| 20260903084528 | 71 | 260 | 0.0 | 1.0 | 0.00 | 0.00 | 0.00 | 94 | 1008.9 |
| 20260903084029 | 71 | 260 | 0.0 | 1.0 | 0.00 | 0.00 | 0.00 | 94 | 1008.9 |
| 20260903083528 | 71 | 260 | 0.0 | 1.0 | 0.00 | 0.00 | 0.00 | 94 | 1008.9 |
| 20260903083028 | 72 | 260 | 0.0 | 1.0 | 0.00 | 0.00 | 0.00 | 95 | 1008.9 |
| 20260903082530 | 71 | 260 | 0.0 | 0.0 | 0.00 | 0.00 | 0.00 | 94 | 1008.9 |
| 20260903082029 | 71 | 260 | 0.0 | 0.0 | 0.00 | 0.00 | 0.00 | 94 | 1008.8 |
| 20260903081539 | 71 | 260 | 0.0 | 0.0 | 0.00 | 0.00 | 0.00 | 94 | 1008.9 |
| 20260903081026 | 71 | 260 | 0.0 | 0.0 | 0.00 | 0.00 | 0.00 | 94 | 1008.8 |
| 20260903080527 | 71 | 260 | 0.0 | 0.0 | 0.00 | 0.00 | 0.00 | 94 | 1008.8 |
| 20260903080027 | 71 | 261 | 0.0 | 0.0 | 0.00 | 0.00 | 0.00 | 94 | 1008.7 |
| 20260903075530 | 72 | 261 | 0.0 | 1.0 | 0.00 | 0.00 | 0.00 | 94 | 1008.9 |
| 20260903075028 | 72 | 260 | 0.0 | 1.0 | 0.00 | 0.00 | 0.00 | 94 | 1008.9 |
| 20260903074527 | 72 | 259 | 0.0 | 1.0 | 0.00 | 0.00 | 0.00 | 94 | 1008.8 |
| 20260903074026 | 72 | 208 | 0.0 | 2.0 | 0.00 | 0.00 | 0.00 | 94 | 1008.7 |
| 20260903073527 | 72 | 202 | 0.0 | 2.0 | 0.00 | 0.00 | 0.00 | 94 | 1008.7 |
| 20260903073030 | 72 | 231 | 0.0 | 2.0 | 0.00 | 0.00 | 0.00 | 94 | 1008.7 |
| 20260903072525 | 72 | 215 | 0.0 | 2.0 | 0.00 | 0.00 | 0.00 | 94 | 1008.6 |
| 20260903072027 | 72 | 243 | 0.0 | 2.0 | 0.00 | 0.00 | 0.00 | 94 | 1008.5 |
| 20260903071527 | 72 | 226 | 0.0 | 1.0 | 0.00 | 0.00 | 0.00 | 94 | 1008.6 |
| 20260903071026 | 72 | 207 | 0.0 | 1.0 | 0.00 | 0.00 | 0.00 | 94 | 1008.5 |
| 20260903070524 | 72 | 199 | 0.0 | 1.0 | 0.00 | 0.00 | 0.00 | 94 | 1008.5 |
| 20260903070023 | 72 | 228 | 0.0 | 1.0 | 0.00 | 0.00 | 0.00 | 94 | 1008.6 |
| 20260903065524 | 72 | 228 | 0.0 | 1.0 | 0.00 | 0.00 | 0.00 | 94 | 1008.7 |
| 20260903065025 | 72 | 149 | 0.0 | 1.0 | 0.00 | 0.00 | 0.00 | 94 | 1008.7 |
| 20260903064522 | 72 | 58 | 0.0 | 1.0 | 0.00 | 0.00 | 0.00 | 94 | 1008.9 |
| 20260903064022 | 72 | 57 | 0.0 | 1.0 | 0.00 | 0.00 | 0.00 | 94 | 1009.0 |
| 20260903063521 | 72 | 58 | 0.0 | 0.0 | 0.00 | 0.00 | 0.00 | 94 | 1008.9 |
| 20260903063020 | 72 | 28 | 0.0 | 1.0 | 0.00 | 0.00 | 0.00 | 94 | 1008.9 |
| 20260903062519 | 72 | 28 | 0.0 | 1.0 | 0.00 | 0.00 | 0.00 | 94 | 1009.0 |
| 20260903062018 | 72 | 28 | 0.0 | 0.0 | 0.00 | 0.00 | 0.00 | 94 | 1009.3 |
| 20260903061517 | 72 | 28 | 0.0 | 0.0 | 0.00 | 0.00 | 0.00 | 93 | 1009.3 |
| 20260903061016 | 72 | 28 | 0.0 | 0.0 | 0.00 | 0.00 | 0.00 | 93 | 1009.4 |
| 20260903060517 | 72 | 28 | 0.0 | 0.0 | 0.00 | 0.00 | 0.00 | 93 | 1009.4 |
| 20260903060018 | 72 | 28 | 0.0 | 0.0 | 0.00 | 0.00 | 0.00 | 93 | 1009.4 |
| 20260903055516 | 72 | 28 | 0.0 | 0.0 | 0.00 | 0.00 | 0.00 | 93 | 1009.6 |
| 20260903055014 | 72 | 28 | 0.0 | 0.0 | 0.00 | 0.00 | 0.00 | 93 | 1009.6 |
| 20260903054515 | 72 | 28 | 0.0 | 0.0 | 0.00 | 0.00 | 0.00 | 93 | 1009.8 |
| 20260903054015 | 72 | 28 | 0.0 | 0.0 | 0.00 | 0.00 | 0.00 | 93 | 1009.8 |
| 20260903053517 | 72 | 28 | 0.0 | 0.0 | 0.00 | 0.00 | 0.00 | 93 | 1009.9 |
| 20260903053012 | 72 | 28 | 0.0 | 0.0 | 0.00 | 0.00 | 0.00 | 93 | 1009.8 |
| 20260903052513 | 72 | 28 | 0.0 | 0.0 | 0.00 | 0.00 | 0.00 | 93 | 1009.8 |
| 20260903052013 | 72 | 28 | 0.0 | 0.0 | 0.00 | 0.00 | 0.00 | 92 | 1009.8 |
| 20260903051511 | 72 | 28 | 0.0 | 0.0 | 0.00 | 0.00 | 0.00 | 92 | 1009.9 |
| 20260903051011 | 72 | 28 | 0.0 | 0.0 | 0.00 | 0.00 | 0.00 | 92 | 1009.8 |
| 20260903050511 | 72 | 28 | 0.0 | 0.0 | 0.00 | 0.00 | 0.00 | 92 | 1009.9 |
| 20260903050011 | 72 | 28 | 0.0 | 0.0 | 0.00 | 0.00 | 0.00 | 92 | 1010.0 |
| 20260903045511 | 72 | 28 | 0.0 | 0.0 | 0.00 | 0.00 | 0.00 | 92 | 1010.0 |
| 20260903045009 | 72 | 28 | 0.0 | 0.0 | 0.00 | 0.00 | 0.00 | 92 | 1010.0 |
| 20260903044508 | 72 | 28 | 0.0 | 0.0 | 0.00 | 0.00 | 0.00 | 92 | 1010.1 |
| 20260903044008 | 72 | 28 | 0.0 | 0.0 | 0.00 | 0.00 | 0.00 | 92 | 1010.1 |
| 20260903043510 | 72 | 28 | 0.0 | 0.0 | 0.00 | 0.00 | 0.00 | 92 | 1009.9 |
| 20260903043009 | 72 | 28 | 0.0 | 0.0 | 0.00 | 0.00 | 0.00 | 92 | 1010.0 |
| 20260903042503 | 72 | 28 | 0.0 | 0.0 | 0.00 | 0.00 | 0.00 | 92 | 1010.0 |
| 20260903042002 | 72 | 28 | 0.0 | 0.0 | 0.00 | 0.00 | 0.00 | 92 | 1009.9 |
| 20260903041502 | 72 | 28 | 0.0 | 1.0 | 0.00 | 0.00 | 0.00 | 92 | 1009.9 |
| 20260903041101 | 73 | 28 | 0.0 | 1.0 | 0.00 | 0.00 | 0.00 | 92 | 1009.9 |
| 20260903040558 | 73 | 26 | 0.0 | 0.0 | 0.00 | 0.00 | 0.00 | 92 | 1009.9 |
| 20260903040103 | 73 | 26 | 0.0 | 1.0 | 0.00 | 0.00 | 0.00 | 92 | 1009.9 |
| 20260903035556 | 73 | 26 | 0.0 | 1.0 | 0.00 | 0.00 | 0.00 | 92 | 1009.9 |
| 20260903035056 | 73 | 26 | 0.0 | 1.0 | 0.00 | 0.00 | 0.00 | 91 | 1010.1 |
| 20260903034556 | 72 | 26 | 0.0 | 1.0 | 0.00 | 0.00 | 0.00 | 91 | 1010.0 |
| 20260903034057 | 72 | 221 | 0.0 | 0.0 | 0.00 | 0.00 | 0.00 | 91 | 1009.9 |
| 20260903033556 | 73 | 221 | 0.0 | 0.0 | 0.00 | 0.00 | 0.00 | 91 | 1009.9 |
| 20260903033055 | 73 | 221 | 0.0 | 0.0 | 0.00 | 0.00 | 0.00 | 91 | 1009.8 |
| 20260903032555 | 73 | 221 | 0.0 | 0.0 | 0.00 | 0.00 | 0.00 | 91 | 1009.7 |
| 20260903032054 | 72 | 221 | 0.0 | 0.0 | 0.00 | 0.00 | 0.00 | 91 | 1009.6 |
| 20260903031558 | 73 | 221 | 0.0 | 0.0 | 0.00 | 0.00 | 0.00 | 90 | 1009.3 |
| 20260903031055 | 73 | 221 | 0.0 | 0.0 | 0.00 | 0.00 | 0.00 | 90 | 1009.4 |
| 20260903030554 | 73 | 221 | 0.0 | 0.0 | 0.00 | 0.00 | 0.00 | 90 | 1009.4 |
| 20260903030054 | 73 | 221 | 0.0 | 0.0 | 0.00 | 0.00 | 0.00 | 90 | 1009.4 |
| 20260903025554 | 73 | 221 | 0.0 | 0.0 | 0.00 | 0.00 | 0.00 | 90 | 1009.4 |
| 20260903025053 | 73 | 221 | 0.0 | 0.0 | 0.00 | 0.00 | 0.00 | 90 | 1009.4 |
| 20260903024553 | 73 | 221 | 0.0 | 0.0 | 0.00 | 0.00 | 0.00 | 90 | 1009.2 |
| 20260903024053 | 73 | 221 | 0.0 | 0.0 | 0.00 | 0.00 | 0.00 | 89 | 1009.0 |
| 20260903023554 | 73 | 221 | 0.0 | 0.0 | 0.00 | 0.00 | 0.00 | 89 | 1009.0 |
| 20260903023105 | 73 | 221 | 0.0 | 0.0 | 0.00 | 0.00 | 0.00 | 89 | 1009.0 |
| 20260903022550 | 73 | 221 | 0.0 | 0.0 | 0.00 | 0.00 | 0.00 | 89 | 1009.0 |
| 20260903022053 | 73 | 221 | 0.0 | 0.0 | 0.00 | 0.00 | 0.00 | 89 | 1009.0 |
| 20260903021551 | 73 | 221 | 0.0 | 0.0 | 0.00 | 0.00 | 0.00 | 89 | 1009.0 |
| 20260903021049 | 74 | 221 | 0.0 | 0.0 | 0.00 | 0.00 | 0.00 | 88 | 1009.2 |
| 20260903020551 | 74 | 221 | 0.0 | 0.0 | 0.00 | 0.00 | 0.00 | 88 | 1009.4 |
| 20260903020049 | 74 | 221 | 0.0 | 0.0 | 0.00 | 0.00 | 0.00 | 88 | 1009.6 |
| 20260903015549 | 74 | 221 | 0.0 | 0.0 | 0.00 | 0.00 | 0.00 | 87 | 1009.4 |
| 20260903015048 | 74 | 221 | 0.0 | 0.0 | 0.00 | 0.00 | 0.00 | 87 | 1009.4 |
| 20260903014548 | 74 | 221 | 0.0 | 0.0 | 0.00 | 0.00 | 0.00 | 87 | 1009.6 |
| 20260903014047 | 74 | 221 | 0.0 | 0.0 | 0.00 | 0.00 | 0.00 | 87 | 1009.6 |
| 20260903013551 | 74 | 219 | 0.0 | 0.0 | 0.00 | 0.00 | 0.00 | 87 | 1009.6 |
| 20260903013049 | 75 | 219 | 0.0 | 0.0 | 0.00 | 0.00 | 0.00 | 87 | 1009.4 |
| 20260903012550 | 75 | 220 | 0.0 | 0.0 | 0.00 | 0.00 | 0.00 | 86 | 1009.5 |
| 20260903012045 | 75 | 220 | 0.0 | 0.0 | 0.00 | 0.00 | 0.00 | 86 | 1009.6 |
| 20260903011545 | 75 | 219 | 0.0 | 0.0 | 0.00 | 0.00 | 0.00 | 86 | 1009.4 |
| 20260903011045 | 75 | 219 | 0.0 | 0.0 | 0.00 | 0.00 | 0.00 | 86 | 1009.5 |
| 20260903010544 | 75 | 214 | 0.0 | 0.0 | 0.00 | 0.00 | 0.00 | 86 | 1009.8 |
| 20260903010044 | 75 | 276 | 0.0 | 0.0 | 0.00 | 0.00 | 0.00 | 86 | 1009.9 |
| 20260903005545 | 75 | 276 | 0.0 | 0.0 | 0.00 | 0.00 | 0.00 | 86 | 1009.9 |
| 20260903005043 | 75 | 40 | 0.0 | 0.0 | 0.00 | 0.00 | 0.00 | 86 | 1009.7 |
| 20260903004544 | 75 | 40 | 0.0 | 0.0 | 0.00 | 0.00 | 0.00 | 85 | 1009.8 |
| 20260903004044 | 75 | 40 | 0.0 | 1.0 | 0.00 | 0.00 | 0.00 | 85 | 1009.8 |
| 20260903003545 | 75 | 250 | 0.0 | 0.0 | 0.00 | 0.00 | 0.00 | 85 | 1009.9 |
| 20260903003050 | 76 | 250 | 0.0 | 0.0 | 0.00 | 0.00 | 0.00 | 84 | 1009.5 |
| 20260903002543 | 76 | 250 | 0.0 | 0.0 | 0.00 | 0.00 | 0.00 | 84 | 1009.3 |
| 20260903002047 | 75 | 250 | 0.0 | 0.0 | 0.00 | 0.00 | 0.00 | 85 | 1009.3 |
| 20260903001543 | 76 | 250 | 0.0 | 0.0 | 0.00 | 0.00 | 0.00 | 84 | 1009.3 |
| 20260903001043 | 76 | 250 | 0.0 | 0.0 | 0.00 | 0.00 | 0.00 | 84 | 1009.5 |
| 20260903000543 | 75 | 247 | 0.0 | 0.0 | 0.00 | 0.00 | 0.00 | 84 | 1009.4 |
| 20260903000042 | 76 | 247 | 0.0 | 1.0 | 0.00 | 0.00 | 0.00 | 85 | 1009.2 |
| 20260902235542 | 76 | 248 | 0.0 | 1.0 | 0.00 | 0.00 | 0.00 | 84 | 1009.6 |
| 20260902235042 | 76 | 238 | 0.0 | 1.0 | 0.00 | 0.00 | 0.00 | 84 | 1009.4 |
| 20260902234542 | 76 | 225 | 0.0 | 0.0 | 0.00 | 0.00 | 0.00 | 84 | 1009.0 |
| 20260902234044 | 76 | 224 | 0.0 | 0.0 | 0.00 | 0.00 | 0.00 | 84 | 1009.0 |
| 20260902233542 | 76 | 224 | 0.0 | 1.0 | 0.00 | 0.00 | 0.00 | 84 | 1009.3 |
| 20260902233041 | 77 | 225 | 0.0 | 1.0 | 0.00 | 0.00 | 0.00 | 84 | 1009.5 |
| 20260902232540 | 77 | 224 | 0.0 | 0.0 | 0.00 | 0.00 | 0.00 | 84 | 1009.7 |
| 20260902232040 | 77 | 224 | 0.0 | 0.0 | 0.00 | 0.00 | 0.00 | 83 | 1009.6 |
| 20260902231555 | 77 | 224 | 0.0 | 0.0 | 0.00 | 0.00 | 0.00 | 83 | 1009.8 |
| 20260902231041 | 77 | 224 | 0.0 | 1.0 | 0.00 | 0.00 | 0.00 | 83 | 1010.0 |
| 20260902230541 | 77 | 224 | 0.0 | 1.0 | 0.00 | 0.00 | 0.00 | 83 | 1010.1 |
| 20260902230041 | 77 | 225 | 0.0 | 1.0 | 0.00 | 0.00 | 0.00 | 82 | 1010.3 |
| 20260902225540 | 77 | 209 | 0.0 | 1.0 | 0.00 | 0.00 | 0.00 | 82 | 1010.4 |
| 20260902225040 | 77 | 209 | 0.0 | 1.0 | 0.00 | 0.00 | 0.00 | 82 | 1010.2 |
| 20260902224540 | 77 | 238 | 0.0 | 1.0 | 0.00 | 0.00 | 0.00 | 82 | 1010.2 |
| 20260902224039 | 77 | 238 | 0.0 | 1.0 | 0.00 | 0.00 | 0.00 | 82 | 1010.2 |
| 20260902223541 | 77 | 236 | 0.0 | 1.0 | 0.00 | 0.00 | 0.00 | 82 | 1010.2 |
| 20260902223039 | 77 | 242 | 0.0 | 0.0 | 0.00 | 0.00 | 0.00 | 82 | 1010.4 |
| 20260902222541 | 77 | 242 | 0.0 | 0.0 | 0.00 | 0.00 | 0.00 | 82 | 1010.3 |
| 20260902222039 | 77 | 242 | 0.0 | 1.0 | 0.00 | 0.00 | 0.00 | 83 | 1010.4 |
| 20260902221550 | 77 | 211 | 0.0 | 1.0 | 0.00 | 0.00 | 0.00 | 83 | 1010.5 |
| 20260902221039 | 77 | 158 | 0.0 | 1.0 | 0.00 | 0.00 | 0.00 | 83 | 1010.1 |
| 20260902220539 | 77 | 143 | 0.0 | 1.0 | 0.00 | 0.00 | 0.00 | 82 | 1009.7 |
| 20260902220042 | 77 | 143 | 0.0 | 0.0 | 0.00 | 0.00 | 0.00 | 82 | 1009.8 |
| 20260902215539 | 77 | 204 | 0.0 | 0.0 | 0.00 | 0.00 | 0.00 | 82 | 1009.7 |
| 20260902215038 | 78 | 230 | 0.0 | 1.0 | 0.00 | 0.00 | 0.00 | 82 | 1009.8 |
| 20260902214544 | 78 | 230 | 0.0 | 1.0 | 0.00 | 0.00 | 0.00 | 81 | 1009.9 |
| 20260902214038 | 78 | 231 | 0.0 | 1.0 | 0.00 | 0.00 | 0.00 | 81 | 1009.7 |
| 20260902213537 | 78 | 118 | 0.0 | 1.0 | 0.00 | 0.00 | 0.00 | 81 | 1009.5 |
| 20260902213048 | 78 | 119 | 0.0 | 1.0 | 0.00 | 0.00 | 0.00 | 81 | 1009.5 |
| 20260902212537 | 78 | 119 | 0.0 | 1.0 | 0.00 | 0.00 | 0.00 | 81 | 1009.8 |
| 20260902212037 | 78 | 119 | 0.0 | 1.0 | 0.00 | 0.00 | 0.00 | 81 | 1009.8 |
| 20260902211537 | 78 | 120 | 0.0 | 1.0 | 0.00 | 0.00 | 0.00 | 81 | 1010.0 |
| 20260902211036 | 78 | 120 | 0.0 | 1.0 | 0.00 | 0.00 | 0.00 | 81 | 1010.2 |
| 20260902210536 | 78 | 120 | 0.0 | 1.0 | 0.00 | 0.00 | 0.00 | 80 | 1010.0 |
| 20260902210039 | 78 | 120 | 0.0 | 1.0 | 0.00 | 0.00 | 0.00 | 80 | 1010.2 |
| 20260902205536 | 79 | 88 | 0.0 | 1.0 | 0.00 | 0.00 | 0.00 | 80 | 1010.3 |
| 20260902205036 | 79 | 246 | 0.0 | 4.0 | 0.00 | 0.00 | 0.00 | 79 | 1010.5 |
| 20260902204536 | 79 | 246 | 0.0 | 4.0 | 0.00 | 0.00 | 0.00 | 79 | 1010.6 |
| 20260902204035 | 79 | 225 | 0.0 | 2.0 | 0.00 | 0.00 | 0.00 | 79 | 1010.4 |
| 20260902203535 | 79 | 101 | 1.0 | 7.0 | 0.00 | 0.00 | 0.00 | 78 | 1010.3 |
| 20260902203038 | 80 | 115 | 1.0 | 7.0 | 0.00 | 0.00 | 0.00 | 78 | 1010.4 |
| 20260902202535 | 80 | 108 | 0.0 | 2.0 | 0.00 | 0.00 | 0.00 | 78 | 1010.4 |
| 20260902202035 | 80 | 118 | 0.0 | 4.0 | 0.00 | 0.00 | 0.00 | 78 | 1010.7 |
| 20260902201534 | 81 | 114 | 0.0 | 4.0 | 0.00 | 0.00 | 0.00 | 77 | 1010.6 |
| 20260902201034 | 81 | 81 | 0.0 | 4.0 | 0.00 | 0.00 | 0.00 | 77 | 1010.7 |
| 20260902200534 | 81 | 105 | 1.0 | 6.0 | 0.00 | 0.00 | 0.00 | 77 | 1010.5 |
| 20260902200034 | 81 | 113 | 2.0 | 6.0 | 0.00 | 0.00 | 0.00 | 76 | 1010.7 |
| 20260902195535 | 81 | 117 | 1.0 | 4.0 | 0.00 | 0.00 | 0.00 | 77 | 1010.6 |
| 20260902195034 | 81 | 103 | 1.0 | 3.0 | 0.00 | 0.00 | 0.00 | 76 | 1010.8 |
| 20260902194536 | 82 | 103 | 1.0 | 8.0 | 0.00 | 0.00 | 0.00 | 76 | 1011.1 |
| 20260902194037 | 82 | 135 | 2.0 | 12.0 | 0.00 | 0.00 | 0.00 | 76 | 1010.7 |
| 20260902193534 | 83 | 84 | 4.0 | 15.0 | 0.00 | 0.00 | 0.00 | 75 | 1011.0 |
| 20260902193035 | 83 | 63 | 4.0 | 15.0 | 0.00 | 0.00 | 0.00 | 74 | 1010.9 |
| 20260902192532 | 84 | 77 | 4.0 | 18.0 | 0.00 | 0.00 | 0.00 | 73 | 1010.8 |
| 20260902192032 | 86 | 323 | 6.0 | 17.0 | 0.00 | 0.00 | 0.00 | 69 | 1010.7 |
| 20260902191531 | 91 | 100 | 4.0 | 9.0 | 0.00 | 0.00 | 0.00 | 69 | 1010.4 |
| 20260902191030 | 91 | 107 | 1.0 | 5.0 | 0.00 | 0.00 | 0.00 | 70 | 1009.9 |
| 20260902190534 | 91 | 106 | 0.0 | 5.0 | 0.00 | 0.00 | 0.00 | 70 | 1009.7 |
| 20260902190031 | 91 | 139 | 1.0 | 3.0 | 0.00 | 0.00 | 0.00 | 70 | 1009.8 |
| 20260902185530 | 90 | 113 | 0.0 | 5.0 | 0.00 | 0.00 | 0.00 | 70 | 1010.0 |
| 20260902185035 | 90 | 83 | 1.0 | 6.0 | 0.00 | 0.00 | 0.00 | 69 | 1010.2 |
| 20260902184530 | 91 | 95 | 2.0 | 6.0 | 0.00 | 0.00 | 0.00 | 68 | 1010.4 |
| 20260902184030 | 91 | 134 | 1.0 | 6.0 | 0.00 | 0.00 | 0.00 | 68 | 1010.5 |
| 20260902183530 | 91 | 124 | 2.0 | 6.0 | 0.00 | 0.00 | 0.00 | 67 | 1010.6 |
| 20260902183029 | 92 | 134 | 2.0 | 6.0 | 0.00 | 0.00 | 0.00 | 68 | 1010.5 |
| 20260902182528 | 92 | 96 | 2.0 | 6.0 | 0.00 | 0.00 | 0.00 | 66 | 1010.4 |
| 20260902182028 | 92 | 44 | 2.0 | 6.0 | 0.00 | 0.00 | 0.00 | 65 | 1010.3 |
| 20260902181526 | 93 | 84 | 1.0 | 4.0 | 0.00 | 0.00 | 0.00 | 65 | 1010.1 |
| 20260902181026 | 93 | 88 | 1.0 | 4.0 | 0.00 | 0.00 | 0.00 | 65 | 1010.1 |
| 20260902180524 | 92 | 117 | 1.0 | 2.0 | 0.00 | 0.00 | 0.00 | 66 | 1010.3 |
| 20260902180025 | 92 | 276 | 0.0 | 4.0 | 0.00 | 0.00 | 0.00 | 66 | 1010.3 |
| 20260902175524 | 92 | 86 | 1.0 | 5.0 | 0.00 | 0.00 | 0.00 | 65 | 1010.3 |
| 20260902175023 | 92 | 108 | 2.0 | 7.0 | 0.00 | 0.00 | 0.00 | 65 | 1010.4 |
| 20260902174523 | 92 | 80 | 1.0 | 7.0 | 0.00 | 0.00 | 0.00 | 65 | 1010.4 |
| 20260902174026 | 92 | 98 | 1.0 | 4.0 | 0.00 | 0.00 | 0.00 | 66 | 1010.4 |
| 20260902173523 | 92 | 60 | 1.0 | 4.0 | 0.00 | 0.00 | 0.00 | 65 | 1010.3 |
| 20260902173021 | 92 | 133 | 1.0 | 4.0 | 0.00 | 0.00 | 0.00 | 64 | 1010.3 |
| 20260902172523 | 92 | 66 | 0.0 | 3.0 | 0.00 | 0.00 | 0.00 | 64 | 1010.3 |
| 20260902172020 | 92 | 86 | 1.0 | 7.0 | 0.00 | 0.00 | 0.00 | 65 | 1010.3 |
| 20260902171620 | 92 | 86 | 2.0 | 7.0 | 0.00 | 0.00 | 0.00 | 65 | 1010.3 |
| 20260902171019 | 91 | 51 | 0.0 | 4.0 | 0.00 | 0.00 | 0.00 | 66 | 1010.4 |
| 20260902170517 | 91 | 52 | 0.0 | 3.0 | 0.00 | 0.00 | 0.00 | 65 | 1010.4 |
| 20260902170016 | 91 | 115 | 1.0 | 3.0 | 0.00 | 0.00 | 0.00 | 65 | 1010.4 |
| 20260902165521 | 90 | 132 | 0.0 | 4.0 | 0.00 | 0.00 | 0.00 | 65 | 1010.5 |
| 20260902165015 | 90 | 88 | 1.0 | 4.0 | 0.00 | 0.00 | 0.00 | 66 | 1010.5 |
| 20260902164514 | 90 | 167 | 1.0 | 5.0 | 0.00 | 0.00 | 0.00 | 66 | 1010.5 |
| 20260902164015 | 91 | 77 | 2.0 | 5.0 | 0.00 | 0.00 | 0.00 | 66 | 1010.4 |
| 20260902163514 | 90 | 231 | 0.0 | 4.0 | 0.00 | 0.00 | 0.00 | 66 | 1010.5 |
| 20260902163012 | 90 | 298 | 0.0 | 4.0 | 0.00 | 0.00 | 0.00 | 67 | 1010.5 |
| 20260902162511 | 90 | 52 | 1.0 | 4.0 | 0.00 | 0.00 | 0.00 | 66 | 1010.5 |
| 20260902162011 | 89 | 117 | 0.0 | 4.0 | 0.00 | 0.00 | 0.00 | 67 | 1010.5 |
| 20260902161511 | 90 | 83 | 1.0 | 4.0 | 0.00 | 0.00 | 0.00 | 67 | 1010.5 |
| 20260902161011 | 90 | 330 | 1.0 | 4.0 | 0.00 | 0.00 | 0.00 | 66 | 1010.4 |
| 20260902160511 | 90 | 115 | 0.0 | 5.0 | 0.00 | 0.00 | 0.00 | 68 | 1010.4 |
| 20260902160017 | 90 | 120 | 1.0 | 5.0 | 0.00 | 0.00 | 0.00 | 68 | 1010.5 |
| 20260902155509 | 89 | 132 | 1.0 | 3.0 | 0.00 | 0.00 | 0.00 | 69 | 1010.4 |
| 20260902155009 | 89 | 120 | 0.0 | 3.0 | 0.00 | 0.00 | 0.00 | 68 | 1010.3 |
| 20260902154611 | 89 | 131 | 0.0 | 3.0 | 0.00 | 0.00 | 0.00 | 69 | 1010.4 |
| 20260902154006 | 88 | 116 | 0.0 | 6.0 | 0.00 | 0.00 | 0.00 | 71 | 1010.5 |
| 20260902153505 | 88 | 19 | 1.0 | 6.0 | 0.00 | 0.00 | 0.00 | 73 | 1010.6 |
| 20260902153006 | 88 | 69 | 2.0 | 6.0 | 0.00 | 0.00 | 0.00 | 71 | 1010.4 |
| 20260902152504 | 88 | 82 | 2.0 | 6.0 | 0.00 | 0.00 | 0.00 | 71 | 1010.4 |
| 20260902152003 | 88 | 111 | 1.0 | 3.0 | 0.00 | 0.00 | 0.00 | 71 | 1010.5 |
| 20260902151503 | 87 | 109 | 1.0 | 4.0 | 0.00 | 0.00 | 0.00 | 71 | 1010.4 |
| 20260902151004 | 88 | 101 | 1.0 | 5.0 | 0.00 | 0.00 | 0.00 | 72 | 1010.5 |
| 20260902150501 | 87 | 96 | 1.0 | 6.0 | 0.00 | 0.00 | 0.00 | 72 | 1010.5 |
| 20260902145601 | 87 | 84 | 2.0 | 5.0 | 0.00 | 0.00 | 0.00 | 73 | 1010.6 |
| 20260902145059 | 87 | 30 | 1.0 | 5.0 | 0.00 | 0.00 | 0.00 | 73 | 1010.6 |
| 20260902144602 | 87 | 113 | 1.0 | 3.0 | 0.00 | 0.00 | 0.00 | 73 | 1010.6 |
| 20260902144059 | 87 | 64 | 0.0 | 4.0 | 0.00 | 0.00 | 0.00 | 74 | 1010.6 |
| 20260902143559 | 86 | 40 | 0.0 | 4.0 | 0.00 | 0.00 | 0.00 | 74 | 1010.6 |
| 20260902143056 | 86 | 13 | 1.0 | 5.0 | 0.00 | 0.00 | 0.00 | 74 | 1010.6 |
| 20260902142555 | 86 | 82 | 1.0 | 3.0 | 0.00 | 0.00 | 0.00 | 75 | 1010.5 |
| 20260902142056 | 86 | 45 | 1.0 | 3.0 | 0.00 | 0.00 | 0.00 | 74 | 1010.5 |
| 20260902141554 | 85 | 113 | 0.0 | 3.0 | 0.00 | 0.00 | 0.00 | 76 | 1010.5 |
| 20260902141053 | 85 | 92 | 0.0 | 3.0 | 0.00 | 0.00 | 0.00 | 76 | 1010.5 |
| 20260902140552 | 85 | 72 | 0.0 | 3.0 | 0.00 | 0.00 | 0.00 | 77 | 1010.5 |
| 20260902140053 | 84 | 121 | 1.0 | 3.0 | 0.00 | 0.00 | 0.00 | 78 | 1010.4 |
| 20260902135550 | 84 | 56 | 0.0 | 4.0 | 0.00 | 0.00 | 0.00 | 78 | 1010.5 |
| 20260902135049 | 83 | 28 | 1.0 | 4.0 | 0.00 | 0.00 | 0.00 | 79 | 1010.5 |
| 20260902134550 | 83 | 46 | 1.0 | 3.0 | 0.00 | 0.00 | 0.00 | 79 | 1010.4 |
| 20260902134048 | 83 | 64 | 0.0 | 5.0 | 0.00 | 0.00 | 0.00 | 80 | 1010.4 |
| 20260902133548 | 82 | 340 | 1.0 | 5.0 | 0.00 | 0.00 | 0.00 | 79 | 1010.5 |
| 20260902133050 | 83 | 72 | 0.0 | 2.0 | 0.00 | 0.00 | 0.00 | 80 | 1010.5 |
| 20260902132547 | 82 | 70 | 0.0 | 3.0 | 0.00 | 0.00 | 0.00 | 81 | 1010.5 |
| 20260902132045 | 81 | 82 | 0.0 | 3.0 | 0.00 | 0.00 | 0.00 | 81 | 1010.2 |
| 20260902131549 | 81 | 7 | 1.0 | 3.0 | 0.00 | 0.00 | 0.00 | 81 | 1010.2 |
| 20260902131049 | 81 | 80 | 0.0 | 5.0 | 0.00 | 0.00 | 0.00 | 81 | 1010.1 |